When you browse on this site, cookies collect data to enhance your experience and personalize the content and advertising you see.
Visit our Privacy Policy to learn more. By continuing to use the site, you agree to this use of cookies and data.
  • En España
  • Lista de países
  • Para 7 días
  • Temperatura del agua
  • El tiempo en el mapa
  • Informadores
  • user-avatar
    Iniciar sesión

    Tiempo cada hora Oral

    Hoy, 20 Agosto, Martes

    Tiempo Temperatura Precipitaciones Viento Presión Humedad
    00:00 +28°C° 0 mm 3 mps 757 mmHg 25%
    01:00 +28°C° 0 mm 3 mps 757 mmHg 26%
    02:00 +27°C° 0 mm 2 mps 757 mmHg 26%
    03:00 +26°C° 0 mm 2 mps 757 mmHg 27%
    04:00 +27°C° 0 mm 2 mps 757 mmHg 28%
    05:00 +27°C° 0 mm 2 mps 758 mmHg 29%
    06:00 +27°C° 0 mm 2 mps 758 mmHg 30%
    07:00 +30°C° 0 mm 2 mps 758 mmHg 27%
    08:00 +32°C° 0 mm 2 mps 758 mmHg 24%
    09:00 +35°C° 0 mm 3 mps 757 mmHg 20%
    10:00 +36°C° 0 mm 3 mps 757 mmHg 19%
    11:00 +37°C° 0 mm 3 mps 757 mmHg 17%
    12:00 +38°C° 0 mm 3 mps 757 mmHg 15%
    13:00 +40°C° 0 mm 4 mps 756 mmHg 15%
    14:00 +40°C° 0 mm 4 mps 756 mmHg 15%
    15:00 +40°C° 0 mm 5 mps 756 mmHg 14%
    16:00 +38°C° 0 mm 4 mps 756 mmHg 16%
    17:00 +36°C° 0 mm 3 mps 756 mmHg 19%
    18:00 +35°C° 0 mm 2 mps 755 mmHg 21%
    19:00 +32°C° 0 mm 2 mps 756 mmHg 21%
    20:00 +31°C° 0 mm 2 mps 756 mmHg 21%
    21:00 +29°C° 0 mm 1 mps 756 mmHg 22%
    22:00 +29°C° 0 mm 1 mps 756 mmHg 23%
    23:00 +28°C° 0 mm 1 mps 755 mmHg 24%

    Mañana, 21 Agosto, Miércoles

    Tiempo Temperatura Precipitaciones Viento Presión Humedad
    00:00 +27°C° 0 mm 2 mps 755 mmHg 26%
    01:00 +26°C° 0 mm 2 mps 755 mmHg 33%
    02:00 +26°C° 0 mm 2 mps 755 mmHg 40%
    03:00 +25°C° 0 mm 3 mps 755 mmHg 47%
    04:00 +25°C° 0.1 mm 3 mps 755 mmHg 52%
    05:00 +25°C° 0.1 mm 4 mps 755 mmHg 58%
    06:00 +23°C° 0.1 mm 4 mps 755 mmHg 63%
    07:00 +26°C° 0 mm 5 mps 755 mmHg 59%
    08:00 +28°C° 0 mm 5 mps 755 mmHg 55%
    09:00 +30°C° 0 mm 5 mps 756 mmHg 51%
    10:00 +32°C° 0 mm 5 mps 755 mmHg 47%
    11:00 +34°C° 0 mm 5 mps 755 mmHg 43%
    12:00 +35°C° 0 mm 5 mps 755 mmHg 38%
    13:00 +35°C° 0 mm 5 mps 755 mmHg 36%
    14:00 +35°C° 0 mm 5 mps 755 mmHg 33%
    15:00 +35°C° 0 mm 5 mps 755 mmHg 30%
    16:00 +34°C° 0 mm 5 mps 755 mmHg 34%
    17:00 +33°C° 0 mm 5 mps 755 mmHg 38%
    18:00 +30°C° 0 mm 6 mps 755 mmHg 42%
    19:00 +29°C° 0 mm 6 mps 755 mmHg 48%
    20:00 +27°C° 0 mm 6 mps 756 mmHg 54%
    21:00 +26°C° 0 mm 6 mps 756 mmHg 60%
    22:00 +24°C° 0 mm 6 mps 756 mmHg 65%
    23:00 +23°C° 0 mm 6 mps 756 mmHg 70%

    Pasado mañana, 22 Agosto, Jueves

    Tiempo Temperatura Precipitaciones Viento Presión Humedad
    00:00 +21°C° 0 mm 5 mps 756 mmHg 75%
    01:00 +20°C° 0 mm 5 mps 757 mmHg 79%
    02:00 +19°C° 0 mm 4 mps 757 mmHg 82%
    03:00 +18°C° 0 mm 3 mps 757 mmHg 85%
    04:00 +19°C° 0 mm 4 mps 757 mmHg 84%
    05:00 +19°C° 0 mm 4 mps 757 mmHg 82%
    06:00 +19°C° 0 mm 5 mps 757 mmHg 81%
    07:00 +21°C° 0 mm 5 mps 757 mmHg 73%
    08:00 +23°C° 0 mm 5 mps 757 mmHg 65%
    09:00 +26°C° 0 mm 5 mps 757 mmHg 57%
    10:00 +28°C° 0 mm 4 mps 757 mmHg 50%
    11:00 +29°C° 0 mm 4 mps 756 mmHg 44%
    12:00 +32°C° 0 mm 4 mps 756 mmHg 38%
    13:00 +31°C° 0 mm 3 mps 756 mmHg 36%
    14:00 +33°C° 0 mm 3 mps 756 mmHg 34%
    15:00 +34°C° 0 mm 3 mps 756 mmHg 32%
    16:00 +33°C° 0 mm 3 mps 756 mmHg 34%
    17:00 +31°C° 0 mm 2 mps 756 mmHg 36%
    18:00 +30°C° 0 mm 2 mps 755 mmHg 38%
    19:00 +29°C° 0 mm 3 mps 756 mmHg 42%
    20:00 +27°C° 0 mm 3 mps 756 mmHg 46%
    21:00 +26°C° 0 mm 4 mps 756 mmHg 50%
    22:00 +25°C° 0 mm 4 mps 756 mmHg 52%
    23:00 +24°C° 0 mm 3 mps 756 mmHg 53%

    23 Agosto, Viernes

    Tiempo Temperatura Precipitaciones Viento Presión Humedad
    00:00 +24°C° 0 mm 3 mps 756 mmHg 55%
    01:00 +22°C° 0 mm 3 mps 756 mmHg 55%
    02:00 +22°C° 0 mm 3 mps 756 mmHg 55%
    03:00 +22°C° 0 mm 3 mps 756 mmHg 55%
    04:00 +22°C° 0 mm 3 mps 756 mmHg 54%
    05:00 +22°C° 0 mm 3 mps 756 mmHg 52%
    06:00 +24°C° 0 mm 3 mps 756 mmHg 51%
    07:00 +26°C° 0 mm 3 mps 756 mmHg 43%
    08:00 +29°C° 0 mm 3 mps 756 mmHg 36%
    09:00 +31°C° 0 mm 3 mps 756 mmHg 29%
    10:00 +33°C° 0 mm 3 mps 756 mmHg 27%
    11:00 +34°C° 0 mm 3 mps 756 mmHg 25%
    12:00 +36°C° 0 mm 4 mps 755 mmHg 23%
    13:00 +36°C° 0 mm 3 mps 755 mmHg 22%
    14:00 +36°C° 0 mm 3 mps 755 mmHg 21%
    15:00 +37°C° 0 mm 3 mps 755 mmHg 20%
    16:00 +36°C° 0 mm 2 mps 755 mmHg 22%
    17:00 +34°C° 0 mm 2 mps 754 mmHg 24%
    18:00 +32°C° 0 mm 2 mps 754 mmHg 26%
    19:00 +31°C° 0 mm 3 mps 754 mmHg 27%
    20:00 +30°C° 0 mm 3 mps 754 mmHg 28%
    21:00 +29°C° 0 mm 4 mps 754 mmHg 29%
    22:00 +28°C° 0 mm 4 mps 754 mmHg 30%
    23:00 +28°C° 0 mm 4 mps 754 mmHg 30%

    24 Agosto, Sábado

    Tiempo Temperatura Precipitaciones Viento Presión Humedad
    00:00 +28°C° 0 mm 4 mps 754 mmHg 31%
    01:00 +27°C° 0 mm 4 mps 753 mmHg 32%
    02:00 +26°C° 0 mm 4 mps 753 mmHg 33%
    03:00 +26°C° 0 mm 3 mps 753 mmHg 34%
    04:00 +26°C° 0.1 mm 3 mps 753 mmHg 35%
    05:00 +27°C° 0.1 mm 3 mps 753 mmHg 36%
    06:00 +27°C° 0.1 mm 3 mps 753 mmHg 38%
    07:00 +29°C° 0 mm 4 mps 753 mmHg 34%
    08:00 +32°C° 0 mm 4 mps 753 mmHg 31%
    09:00 +33°C° 0 mm 5 mps 753 mmHg 28%
    10:00 +35°C° 0 mm 5 mps 753 mmHg 25%
    11:00 +36°C° 0 mm 6 mps 753 mmHg 23%
    12:00 +38°C° 0 mm 6 mps 752 mmHg 20%
    13:00 +38°C° 0 mm 6 mps 752 mmHg 20%
    14:00 +38°C° 0 mm 7 mps 752 mmHg 20%
    15:00 +38°C° 0 mm 7 mps 752 mmHg 20%
    16:00 +35°C° 0 mm 6 mps 752 mmHg 28%
    17:00 +32°C° 0 mm 4 mps 751 mmHg 36%
    18:00 +29°C° 0 mm 3 mps 751 mmHg 45%
    19:00 +28°C° 0.1 mm 3 mps 751 mmHg 46%
    20:00 +27°C° 0.1 mm 3 mps 751 mmHg 48%
    21:00 +27°C° 0.1 mm 3 mps 752 mmHg 50%
    22:00 +25°C° 0.1 mm 3 mps 752 mmHg 57%
    23:00 +24°C° 0.1 mm 3 mps 751 mmHg 65%

    25 Agosto, Domingo

    Tiempo Temperatura Precipitaciones Viento Presión Humedad
    00:00 +22°C° 0.1 mm 4 mps 751 mmHg 72%
    01:00 +21°C° 0.3 mm 3 mps 751 mmHg 75%
    02:00 +21°C° 0.3 mm 2 mps 751 mmHg 79%
    03:00 +20°C° 0.3 mm 2 mps 751 mmHg 82%
    04:00 +19°C° 2.7 mm 3 mps 751 mmHg 85%
    05:00 +17°C° 2.7 mm 5 mps 751 mmHg 88%
    06:00 +15°C° 2.7 mm 6 mps 751 mmHg 91%
    07:00 +15°C° 1.2 mm 6 mps 751 mmHg 84%
    08:00 +16°C° 1.2 mm 6 mps 751 mmHg 78%
    09:00 +16°C° 1.2 mm 6 mps 751 mmHg 72%
    10:00 +17°C° 0 mm 6 mps 751 mmHg 68%
    11:00 +18°C° 0 mm 7 mps 751 mmHg 63%
    12:00 +20°C° 0 mm 8 mps 751 mmHg 59%
    13:00 +20°C° 0.1 mm 8 mps 751 mmHg 58%
    14:00 +20°C° 0.1 mm 8 mps 751 mmHg 58%
    15:00 +18°C° 0.1 mm 8 mps 751 mmHg 57%
    16:00 +18°C° 0 mm 8 mps 751 mmHg 59%
    17:00 +17°C° 0 mm 8 mps 751 mmHg 61%
    18:00 +16°C° 0 mm 8 mps 752 mmHg 63%
    19:00 +16°C° 0 mm 8 mps 752 mmHg 65%
    20:00 +16°C° 0 mm 8 mps 752 mmHg 67%
    21:00 +15°C° 0 mm 8 mps 752 mmHg 69%
    22:00 +15°C° 0 mm 8 mps 751 mmHg 69%
    23:00 +15°C° 0 mm 9 mps 751 mmHg 68%
    Mostrar más